AAY450 KEYW-KPIE

Flight info

Callsign AAY450
Flight time 0h 48m
Altitude 30000
Route BUFTT1 GUFFS FERAL BLFRG3
Aircraft A320/M-SDE3FGHIRWY/LB1

Departure

Time 2026-04-28 00:05
Airport Key West International Airport (KEYW)

Arrival

Time 2026-04-28 00:54
Airport St. Petersburg Clearwater International Airport (KPIE)
Time Latitude Longitude Altitude Speed Heading
2026-04-27 23:43 24.55441 -81.75378 12 ft 0 kts 180°
2026-04-27 23:56 24.55447 -81.75378 12 ft 4 kts 181°
2026-04-27 23:56 24.55473 -81.75373 13 ft 4 kts 207°
2026-04-27 23:56 24.55490 -81.75356 12 ft 4 kts 262°
2026-04-27 23:57 24.55491 -81.75350 12 ft 0 kts 269°
2026-04-27 23:59 24.55493 -81.75364 12 ft 6 kts 285°
2026-04-27 23:59 24.55520 -81.75384 12 ft 4 kts 329°
2026-04-27 23:59 24.55530 -81.75413 13 ft 8 kts 279°
2026-04-27 23:59 24.55531 -81.75496 12 ft 11 kts 270°
2026-04-28 00:00 24.55531 -81.75573 13 ft 10 kts 270°
2026-04-28 00:00 24.55530 -81.75642 12 ft 9 kts 269°
2026-04-28 00:00 24.55530 -81.75703 12 ft 7 kts 269°
2026-04-28 00:00 24.55530 -81.75756 12 ft 7 kts 269°
2026-04-28 00:01 24.55528 -81.75804 12 ft 6 kts 267°
2026-04-28 00:01 24.55527 -81.75847 12 ft 6 kts 269°
2026-04-28 00:01 24.55527 -81.75924 12 ft 17 kts 270°
2026-04-28 00:01 24.55527 -81.76069 12 ft 20 kts 269°
2026-04-28 00:02 24.55526 -81.76230 12 ft 22 kts 269°
2026-04-28 00:02 24.55523 -81.76407 12 ft 23 kts 269°
2026-04-28 00:02 24.55522 -81.76538 12 ft 15 kts 270°
2026-04-28 00:02 24.55521 -81.76626 12 ft 2 kts 269°
2026-04-28 00:03 24.55522 -81.76640 12 ft 1 kts 279°
2026-04-28 00:03 24.55525 -81.76647 12 ft 1 kts 295°
2026-04-28 00:03 24.55548 -81.76661 11 ft 8 kts 351°
2026-04-28 00:03 24.55599 -81.76659 11 ft 1 kts 23°
2026-04-28 00:04 24.55602 -81.76653 11 ft 2 kts 55°
2026-04-28 00:04 24.55606 -81.76539 11 ft 47 kts 90°
2026-04-28 00:04 24.55615 -81.75875 13 ft 122 kts 90°
2026-04-28 00:05 24.55641 -81.74750 228 ft 157 kts 83°
2026-04-28 00:05 24.55941 -81.73661 1126 ft 149 kts 58°
2026-04-28 00:05 24.56653 -81.72800 1942 ft 160 kts 31°
2026-04-28 00:05 24.57772 -81.72503 2361 ft 179 kts
2026-04-28 00:06 24.59097 -81.72460 2705 ft 202 kts
2026-04-28 00:06 24.60574 -81.72390 3075 ft 222 kts
2026-04-28 00:06 24.62204 -81.72308 3495 ft 246 kts
2026-04-28 00:06 24.63951 -81.72223 4165 ft 261 kts
2026-04-28 00:07 24.65785 -81.72138 5083 ft 266 kts
2026-04-28 00:07 24.67645 -81.72054 6034 ft 270 kts
2026-04-28 00:07 24.69537 -81.71961 6923 ft 274 kts
2026-04-28 00:07 24.71407 -81.71529 7801 ft 277 kts 20°
2026-04-28 00:08 24.73122 -81.70547 8684 ft 281 kts 36°
2026-04-28 00:08 24.74565 -81.69066 9543 ft 286 kts 46°
2026-04-28 00:08 24.75932 -81.67447 10321 ft 294 kts 46°
2026-04-28 00:08 24.77390 -81.65741 10624 ft 318 kts 45°
2026-04-28 00:09 24.78933 -81.63946 11027 ft 334 kts 45°
2026-04-28 00:09 24.80547 -81.62069 11705 ft 341 kts 44°
2026-04-28 00:09 24.82239 -81.60225 12439 ft 344 kts 38°
2026-04-28 00:09 24.84233 -81.58759 13179 ft 346 kts 25°
2026-04-28 00:10 24.86475 -81.57777 13918 ft 348 kts 16°
2026-04-28 00:10 24.88792 -81.56951 14593 ft 352 kts 16°
2026-04-28 00:10 24.91131 -81.56119 15266 ft 355 kts 16°
2026-04-28 00:10 24.93483 -81.55277 15936 ft 357 kts 17°
2026-04-28 00:11 24.95857 -81.54420 16608 ft 360 kts 17°
2026-04-28 00:11 24.98220 -81.53563 17258 ft 364 kts 17°
2026-04-28 00:11 25.00633 -81.52690 17909 ft 367 kts 17°
2026-04-28 00:11 25.03068 -81.51807 18528 ft 370 kts 17°
2026-04-28 00:12 25.05522 -81.50917 19084 ft 373 kts 17°
2026-04-28 00:12 25.08000 -81.50021 19655 ft 376 kts 17°
2026-04-28 00:12 25.10493 -81.49121 20247 ft 378 kts 17°
2026-04-28 00:12 25.13004 -81.48214 20836 ft 381 kts 17°
2026-04-28 00:13 25.15533 -81.47297 21420 ft 384 kts 16°
2026-04-28 00:13 25.18078 -81.46371 21999 ft 387 kts 16°
2026-04-28 00:13 25.20647 -81.45437 22571 ft 390 kts 16°
2026-04-28 00:13 25.23202 -81.44509 23129 ft 393 kts 16°
2026-04-28 00:14 25.25810 -81.43564 23667 ft 396 kts 16°
2026-04-28 00:14 25.28441 -81.42609 24121 ft 399 kts 16°
2026-04-28 00:14 25.31090 -81.41646 24570 ft 402 kts 15°
2026-04-28 00:14 25.33754 -81.40676 25007 ft 405 kts 15°
2026-04-28 00:15 25.36438 -81.39699 25439 ft 407 kts 15°
2026-04-28 00:15 25.39135 -81.38717 25860 ft 410 kts 15°
2026-04-28 00:15 25.41847 -81.37730 26299 ft 411 kts 15°
2026-04-28 00:15 25.44574 -81.36924 26700 ft 411 kts
2026-04-28 00:16 25.47417 -81.36717 27099 ft 410 kts 355°
2026-04-28 00:16 25.50235 -81.37144 27485 ft 410 kts 344°
2026-04-28 00:16 25.52923 -81.38189 27876 ft 410 kts 333°
2026-04-28 00:16 25.55400 -81.39762 28267 ft 412 kts 327°
2026-04-28 00:17 25.57839 -81.41438 28660 ft 414 kts 327°
2026-04-28 00:17 25.60290 -81.43120 29036 ft 416 kts 327°
2026-04-28 00:17 25.62755 -81.44809 29406 ft 418 kts 327°
2026-04-28 00:17 25.65235 -81.46510 29762 ft 420 kts 327°
2026-04-28 00:18 25.67721 -81.48219 30031 ft 421 kts 327°
2026-04-28 00:18 25.70148 -81.49888 30074 ft 408 kts 327°
2026-04-28 00:18 25.72528 -81.51525 30075 ft 399 kts 327°
2026-04-28 00:19 25.77212 -81.54747 30076 ft 395 kts 327°
2026-04-28 00:19 25.81875 -81.57956 30079 ft 394 kts 327°
2026-04-28 00:20 25.86537 -81.61159 30081 ft 394 kts 330°
2026-04-28 00:20 25.91659 -81.63196 30081 ft 397 kts 346°
2026-04-28 00:21 25.97067 -81.64441 30073 ft 397 kts 346°
2026-04-28 00:21 26.02471 -81.65695 30061 ft 396 kts 346°
2026-04-28 00:22 26.07867 -81.66947 30060 ft 396 kts 346°
2026-04-28 00:22 26.13255 -81.68199 30056 ft 395 kts 346°
2026-04-28 00:23 26.18641 -81.69454 30054 ft 395 kts 346°
2026-04-28 00:23 26.23989 -81.70702 30053 ft 395 kts 346°
2026-04-28 00:24 26.29371 -81.71961 30052 ft 395 kts 346°
2026-04-28 00:24 26.34756 -81.73224 30069 ft 396 kts 346°
2026-04-28 00:25 26.40142 -81.74490 30066 ft 396 kts 346°
2026-04-28 00:25 26.45524 -81.75753 30068 ft 395 kts 346°
2026-04-28 00:26 26.50875 -81.76995 30066 ft 395 kts 348°
2026-04-28 00:26 26.56352 -81.77697 30065 ft 396 kts 352°
2026-04-28 00:27 26.61838 -81.78341 30054 ft 396 kts 352°
2026-04-28 00:27 26.67321 -81.78988 30058 ft 396 kts 352°
2026-04-28 00:28 26.72761 -81.79637 30062 ft 396 kts 352°
2026-04-28 00:28 26.78240 -81.80286 30062 ft 396 kts 352°
2026-04-28 00:29 26.83716 -81.80932 30058 ft 396 kts 352°
2026-04-28 00:29 26.89191 -81.81584 30062 ft 395 kts 352°
2026-04-28 00:30 26.94661 -81.82241 30071 ft 395 kts 352°
2026-04-28 00:30 27.00091 -81.82887 30069 ft 395 kts 352°
2026-04-28 00:31 27.05592 -81.83598 30067 ft 406 kts 347°
2026-04-28 00:31 27.08326 -81.84471 29302 ft 411 kts 336°
2026-04-28 00:31 27.10840 -81.85997 28434 ft 411 kts 325°
2026-04-28 00:31 27.13093 -81.87903 27623 ft 398 kts 323°
2026-04-28 00:32 27.15246 -81.89740 27104 ft 380 kts 323°
2026-04-28 00:32 27.17308 -81.91486 26592 ft 364 kts 323°
2026-04-28 00:32 27.19267 -81.93140 26115 ft 350 kts 323°
2026-04-28 00:32 27.21182 -81.94755 25659 ft 342 kts 324°
2026-04-28 00:33 27.23085 -81.96361 25203 ft 342 kts 324°
2026-04-28 00:33 27.24977 -81.97962 24770 ft 340 kts 324°
2026-04-28 00:33 27.26866 -81.99563 24320 ft 340 kts 324°
2026-04-28 00:33 27.28750 -82.01163 23864 ft 339 kts 324°
2026-04-28 00:34 27.30624 -82.02754 23364 ft 337 kts 324°
2026-04-28 00:34 27.32489 -82.04339 22897 ft 335 kts 324°
2026-04-28 00:34 27.34337 -82.05912 22445 ft 332 kts 324°
2026-04-28 00:34 27.36149 -82.07452 22002 ft 330 kts 324°
2026-04-28 00:35 27.37964 -82.09020 21556 ft 328 kts 323°
2026-04-28 00:35 27.39734 -82.10633 21102 ft 327 kts 322°
2026-04-28 00:35 27.41483 -82.12271 20645 ft 327 kts 322°
2026-04-28 00:35 27.43225 -82.13915 20188 ft 327 kts 322°
2026-04-28 00:36 27.44948 -82.15579 19732 ft 327 kts 320°
2026-04-28 00:36 27.46613 -82.17328 19272 ft 328 kts 318°
2026-04-28 00:36 27.48246 -82.19129 18812 ft 329 kts 317°
2026-04-28 00:36 27.49847 -82.20926 18360 ft 330 kts 317°
2026-04-28 00:37 27.51475 -82.22749 17824 ft 331 kts 317°
2026-04-28 00:37 27.53115 -82.24572 17325 ft 331 kts 318°
2026-04-28 00:37 27.54590 -82.26558 16887 ft 333 kts 302°
2026-04-28 00:37 27.55375 -82.29017 16455 ft 338 kts 281°
2026-04-28 00:38 27.55313 -82.31666 16121 ft 340 kts 263°
2026-04-28 00:38 27.55025 -82.34266 15910 ft 330 kts 274°
2026-04-28 00:38 27.55378 -82.36835 15716 ft 335 kts 293°
2026-04-28 00:38 27.56558 -82.39059 15528 ft 330 kts 315°
2026-04-28 00:39 27.58358 -82.40544 15324 ft 326 kts 338°
2026-04-28 00:39 27.60541 -82.41178 15137 ft 325 kts 352°
2026-04-28 00:39 27.62788 -82.41496 14775 ft 326 kts 353°
2026-04-28 00:39 27.65042 -82.41786 14315 ft 326 kts 354°
2026-04-28 00:40 27.67295 -82.42071 13856 ft 326 kts 354°
2026-04-28 00:40 27.69548 -82.42351 13344 ft 325 kts 354°
2026-04-28 00:40 27.71794 -82.42627 12838 ft 325 kts 354°
2026-04-28 00:40 27.74027 -82.42966 12339 ft 323 kts 346°
2026-04-28 00:41 27.76045 -82.44048 11847 ft 323 kts 323°
2026-04-28 00:41 27.77516 -82.45912 11371 ft 324 kts 305°
2026-04-28 00:41 27.78706 -82.48069 10893 ft 323 kts 303°
2026-04-28 00:41 27.79870 -82.50236 10437 ft 322 kts 303°
2026-04-28 00:42 27.81024 -82.52399 9845 ft 323 kts 302°
2026-04-28 00:42 27.82245 -82.54498 9083 ft 315 kts 311°
2026-04-28 00:42 27.83844 -82.56123 8325 ft 306 kts 328°
2026-04-28 00:42 27.85684 -82.57267 7601 ft 299 kts 333°
2026-04-28 00:43 27.87510 -82.58353 6881 ft 294 kts 332°
2026-04-28 00:43 27.89306 -82.59426 6158 ft 290 kts 332°
2026-04-28 00:43 27.91060 -82.60476 5432 ft 287 kts 332°
2026-04-28 00:43 27.92814 -82.61531 4696 ft 285 kts 335°
2026-04-28 00:44 27.94544 -82.62574 4158 ft 276 kts 334°
2026-04-28 00:44 27.96221 -82.63587 4018 ft 273 kts 335°
2026-04-28 00:44 27.97894 -82.64594 4005 ft 272 kts 335°
2026-04-28 00:44 27.99565 -82.65598 3993 ft 268 kts 335°
2026-04-28 00:45 28.01139 -82.66548 3860 ft 244 kts 335°
2026-04-28 00:45 28.02572 -82.67416 3735 ft 223 kts 335°
2026-04-28 00:45 28.03885 -82.68213 3609 ft 206 kts 336°
2026-04-28 00:45 28.05110 -82.68951 3485 ft 201 kts 336°
2026-04-28 00:46 28.06336 -82.69686 3400 ft 197 kts 336°
2026-04-28 00:46 28.07548 -82.70412 3297 ft 197 kts 337°
2026-04-28 00:46 28.08759 -82.71137 3151 ft 196 kts 337°
2026-04-28 00:46 28.09959 -82.71857 3024 ft 195 kts 336°
2026-04-28 00:47 28.11108 -82.72677 2893 ft 200 kts 319°
2026-04-28 00:47 28.11775 -82.74071 2772 ft 208 kts 282°
2026-04-28 00:47 28.11622 -82.75653 2644 ft 198 kts 244°
2026-04-28 00:47 28.10805 -82.76781 2506 ft 176 kts 208°
2026-04-28 00:48 28.09767 -82.77246 2372 ft 155 kts 180°
2026-04-28 00:48 28.08744 -82.77162 2255 ft 143 kts 155°
2026-04-28 00:48 28.07898 -82.76654 2142 ft 135 kts 136°
2026-04-28 00:48 28.07126 -82.76041 2080 ft 136 kts 137°
2026-04-28 00:49 28.06389 -82.75381 2027 ft 131 kts 117°
2026-04-28 00:49 28.06022 -82.74467 2048 ft 128 kts 102°
2026-04-28 00:49 28.05784 -82.73497 2038 ft 129 kts 99°
2026-04-28 00:49 28.05565 -82.72512 2033 ft 129 kts 99°
2026-04-28 00:50 28.05318 -82.71532 2020 ft 132 kts 112°
2026-04-28 00:50 28.04569 -82.70935 2026 ft 143 kts 159°
2026-04-28 00:50 28.03585 -82.70718 2031 ft 144 kts 162°
2026-04-28 00:50 28.02604 -82.70506 2035 ft 143 kts 161°
2026-04-28 00:51 28.01635 -82.70299 2030 ft 141 kts 162°
2026-04-28 00:51 28.00633 -82.70358 1895 ft 149 kts 187°
2026-04-28 00:51 27.99618 -82.70443 1600 ft 144 kts 164°
2026-04-28 00:51 27.98645 -82.70227 1330 ft 143 kts 159°
2026-04-28 00:52 27.97666 -82.70019 1092 ft 144 kts 162°
2026-04-28 00:52 27.96676 -82.69831 907 ft 144 kts 164°
2026-04-28 00:52 27.95688 -82.69654 716 ft 143 kts 165°
2026-04-28 00:52 27.95029 -82.69538 592 ft 144 kts 167°
2026-04-28 00:53 27.93731 -82.69312 333 ft 143 kts 164°
2026-04-28 00:53 27.92744 -82.69141 159 ft 142 kts 164°
2026-04-28 00:53 27.92087 -82.69028 35 ft 139 kts 166°
2026-04-28 00:53 27.91048 -82.68841 22 ft 83 kts 172°
2026-04-28 00:54 27.90646 -82.68775 26 ft 34 kts 172°
2026-04-28 00:54 27.90553 -82.68804 27 ft 13 kts 260°
2026-04-28 00:54 27.90550 -82.68869 24 ft 0 kts 266°
2026-04-28 00:54 27.90550 -82.68873 24 ft 1 kts 266°
2026-04-28 00:55 27.90549 -82.68881 24 ft 1 kts 266°
2026-04-28 00:55 27.90549 -82.68891 24 ft 2 kts 268°
2026-04-28 00:55 27.90583 -82.68922 24 ft 9 kts 348°
2026-04-28 00:55 27.90645 -82.68933 24 ft 9 kts 352°
2026-04-28 00:56 27.90704 -82.68942 24 ft 8 kts 352°
2026-04-28 00:56 27.90756 -82.68951 24 ft 7 kts 352°
2026-04-28 00:56 27.90802 -82.68959 24 ft 6 kts 351°
2026-04-28 00:56 27.90839 -82.68978 24 ft 7 kts 301°
2026-04-28 00:57 27.90838 -82.69046 24 ft 10 kts 268°
2026-04-28 00:57 27.90836 -82.69138 24 ft 13 kts 268°
2026-04-28 00:57 27.90816 -82.69208 25 ft 10 kts 207°
2026-04-28 00:57 27.90776 -82.69208 24 ft 4 kts 177°
2026-04-28 00:58 27.90756 -82.69208 24 ft 0 kts 178°